Wind_Speed
19 19 20 19 20 18 15 13 12 11 10 9 8 7 7 8 6 7 6 7 9 13 11 13 14 16 7 4 5 3 4 2 2 3 2 5 4 6 2 4 3 5 2 13 26
20 21 22 23 21 18 16 16 15 14 13 11 8 5 4 4 7 9 5 8 10 10 11 13 8 11 5 6 4 5 4 3 3 1 4 5 5 4 6 10 7 21 26 35 36
21 23 25 27 20 19 20 19 17 14 12 9 5 3 0 2 3 4 7 9 9 9 9 7 6 3 6 4 6 1 3 2 2 2 5 6 7 7 7 7 8 19 23 25 31
23 25 26 27 20 23 23 20 14 11 9 7 2 3 3 3 3 3 7 8 7 8 8 8 6 5 5 4 4 4 3 1 3 3 4 3 6 5 11 4 12 13 21 24 19
25 27 28 28 20 25 24 17 14 11 8 5 4 6 4 5 1 5 7 9 6 5 9 4 6 2 4 2 3 3 2 3 7 9 6 6 6 4 12 13 13 17 18 17 20
26 27 28 29 21 24 25 14 11 11 8 6 7 6 3 5 1 4 6 7 10 6 7 6 2 2 4 2 2 2 3 2 5 5 3 6 5 4 10 15 17 17 18 18 17
27 28 29 30 20 25 25 9 10 10 8 7 6 5 7 3 2 6 6 5 7 7 3 4 1 2 3 2 2 2 3 5 3 4 4 6 4 9 13 17 18 18 17 17 19
28 30 32 30 20 25 25 6 6 8 8 6 6 3 3 0 3 7 8 4 4 6 4 2 2 4 3 1 5 4 5 3 3 1 5 5 2 4 10 14 17 18 16 18 19
29 31 33 30 20 25 23 5 4 4 5 5 4 4 2 2 5 8 6 4 3 2 3 2 3 4 6 4 4 6 2 2 4 6 2 5 1 5 8 14 15 15 16 17 19
29 30 34 32 19 26 22 3 3 6 4 3 5 4 5 4 6 5 4 4 2 1 3 6 5 4 4 5 1 3 2 3 3 1 8 4 3 5 7 8 11 13 15 17 19
27 30 32 32 16 24 22 2 7 5 11 3 2 0 4 9 2 2 4 2 2 6 3 4 6 2 3 2 3 2 2 4 4 4 5 2 3 3 7 6 12 14 16 16 16
28 30 31 31 11 19 25 8 2 1 2 1 3 3 3 5 4 3 9 4 4 2 2 5 1 1 1 1 2 3 3 4 3 3 3 5 3 2 5 4 7 9 12 15 17
27 29 31 28 8 15 23 10 3 0 2 5 1 1 3 3 3 5 5 1 4 2 2 3 0 1 3 1 1 2 3 2 3 1 2 6 3 3 3 4 7 8 8 11 15
24 28 29 25 4 11 5 12 3 1 4 8 5 2 1 1 2 2 3 2 4 2 1 2 1 1 1 1 0 4 3 2 3 0 3 3 4 4 4 3 7 9 11 12 14
23 24 28 19 7 4 8 9 1 0 4 4 6 4 5 3 3 4 2 3 1 3 3 2 2 2 1 2 3 6 2 4 2 2 3 1 2 3 2 1 4 7 9 10 11
21 24 25 12 4 8 12 3 2 5 2 5 3 7 6 4 4 5 4 5 1 2 2 2 1 1 2 3 2 5 1 4 3 2 2 3 4 3 3 3 1 3 6 8 10
21 23 18 12 5 13 9 2 5 6 2 6 4 5 2 4 6 4 4 6 4 6 6 6 2 2 1 3 2 7 5 2 3 2 4 2 0 3 3 4 3 4 5 6 7
22 22 14 6 10 13 3 4 6 1 2 2 3 4 3 5 3 7 3 4 4 3 2 3 6 2 2 1 2 1 2 3 3 2 4 1 5 2 3 6 7 6 5 5 6
20 13 4 6 12 12 4 5 2 2 2 4 4 5 4 3 3 7 3 0 2 1 2 3 5 3 3 1 4 1 0 3 2 2 2 2 4 2 5 5 5 6 5 5 5
15 9 4 12 14 4 5 2 1 2 3 1 2 3 4 5 7 6 3 1 0 0 2 2 5 2 4 0 1 2 3 2 2 3 4 3 4 4 8 10 7 6 6 5 5
6 3 5 15 7 4 3 2 0 1 2 2 1 2 0 3 2 3 3 2 1 1 1 2 2 4 2 2 2 1 1 1 1 2 3 3 4 4 7 13 12 7 6 6 5
3 2 8 11 4 1 2 1 1 1 1 1 1 2 1 2 3 3 3 3 0 1 3 1 3 4 8 2 2 2 2 2 2 3 3 2 6 3 3 9 10 8 7 6 6
1 2 5 6 3 2 4 2 0 1 2 1 1 3 1 2 3 4 3 1 1 1 1 2 1 4 8 4 1 3 4 4 3 3 11 5 5 3 3 6 6 11 8 6 6
2 3 4 5 1 2 3 2 3 0 2 1 1 1 1 2 3 4 2 2 1 2 2 1 3 7 7 7 3 5 6 5 6 5 6 16 13 4 6 8 8 8 8 6 5
3 1 1 2 3 2 1 1 2 3 0 0 0 3 3 2 3 4 2 5 4 3 3 3 5 5 9 8 6 14 18 12 12 17 13 16 15 13 15 17 14 10 9 8 5
1 2 2 1 2 0 1 2 2 3 2 3 3 2 3 5 6 5 2 3 6 2 1 1 4 1 5 10 9 11 19 14 16 18 16 17 21 5 3 10 11 13 12 9 6
2 2 3 1 1 3 3 3 3 1 3 3 4 2 5 10 7 9 7 6 7 3 2 2 2 4 6 4 7 12 10 4 3 5 4 8 5 4 5 13 14 12 9 8 7
Wind_Direction
25 21 15 8 1 358 359 355 347 335 326 323 324 337 353 15 77 58 40 1 350 354 2 3 22 20 29 48 50 95 61 80 142 164 245 7 19 3 35 48 43 15 12 314 323
24 18 12 5 358 0 0 350 337 327 320 311 307 321 339 39 99 60 21 4 358 9 11 17 353 359 40 13 22 70 91 176 194 131 88 40 56 0 36 17 346 340 328 335 335
21 16 10 8 12 7 356 347 337 332 329 322 291 288 267 117 86 357 6 9 16 12 6 8 4 35 49 18 354 77 134 352 351 25 92 113 52 30 10 17 347 318 319 325 322
19 16 11 8 8 6 2 355 2 0 0 8 61 141 113 110 112 349 6 6 4 4 18 21 27 49 62 24 337 77 48 37 11 27 57 80 119 90 60 320 309 307 313 314 312
15 12 9 7 4 4 2 2 6 5 5 18 94 121 122 54 93 12 16 15 14 28 38 47 46 81 87 339 357 73 356 37 93 86 93 90 51 129 14 347 327 332 335 323 312
11 8 6 5 4 0 358 2 17 12 23 61 104 105 78 74 5 354 358 10 28 30 43 46 113 125 104 102 82 353 1 133 134 152 116 79 30 58 339 341 348 349 336 339 352
11 9 5 4 8 359 357 5 24 37 57 84 81 86 66 148 15 1 7 14 25 36 55 35 51 100 145 123 301 54 76 27 78 184 144 132 50 10 344 346 349 348 342 349 357
14 11 6 4 10 0 358 21 39 46 71 79 52 54 90 32 348 359 11 35 20 34 57 45 3 108 58 331 25 62 56 36 300 77 9 156 312 314 346 343 359 353 358 357 358
12 10 6 5 8 5 357 35 51 44 60 44 56 59 45 352 8 1 4 8 2 37 25 15 38 60 24 53 18 14 174 206 298 36 133 44 98 314 341 355 360 1 2 0 360
8 8 6 2 5 8 358 55 83 42 26 25 46 44 18 320 326 338 356 358 30 358 31 38 44 55 24 52 244 287 318 270 234 169 54 64 123 327 325 358 356 360 360 5 1
4 4 4 359 2 11 13 34 19 357 38 77 295 184 307 329 329 1 338 8 29 51 43 13 64 9 290 228 259 266 249 252 260 135 102 121 137 296 314 353 8 13 359 0 3
357 358 358 357 358 13 39 67 67 308 22 29 281 293 300 344 345 335 3 48 45 49 23 23 96 217 225 98 279 250 223 267 301 144 104 180 241 236 317 359 10 11 4 359 357
353 354 355 357 8 15 45 50 8 47 81 324 308 315 299 16 336 306 27 2 57 45 28 146 250 76 166 270 352 235 193 251 234 96 53 141 280 196 226 22 13 23 2 18 9
349 351 355 0 29 1 46 360 360 172 76 322 348 10 4 94 18 326 35 57 12 9 33 227 56 63 3 317 110 316 221 216 275 49 234 178 276 226 193 342 29 358 10 1 12
348 350 352 1 341 44 331 337 62 237 54 304 312 318 323 66 303 11 12 18 18 317 76 297 17 0 337 275 172 239 184 239 233 206 347 202 98 249 90 33 11 4 7 2 360
342 343 345 353 359 350 343 341 143 47 279 340 319 355 10 4 339 322 17 42 116 61 351 247 262 193 271 302 212 323 14 39 50 87 338 234 159 253 178 144 125 40 17 9 7
335 337 339 340 345 339 344 110 34 93 346 328 332 3 326 314 333 41 27 15 39 23 5 338 338 303 0 343 29 18 40 344 347 4 235 262 308 268 149 127 128 93 44 26 8
328 328 332 344 343 341 352 50 71 50 327 1 348 330 30 360 336 340 47 24 28 67 67 48 332 4 351 214 270 354 113 138 283 288 295 290 240 266 149 126 122 113 95 53 33
329 331 1 354 342 340 64 48 162 213 267 343 336 47 332 359 19 11 35 200 211 59 43 17 278 302 211 171 137 264 145 216 211 196 262 256 268 170 138 156 153 142 104 76 47
336 331 348 347 340 2 70 149 198 304 334 359 60 39 334 318 14 20 322 265 240 150 132 212 298 247 294 43 265 207 148 351 356 299 275 256 269 249 206 201 184 166 148 119 83
344 18 358 340 343 47 96 217 264 325 351 357 202 303 355 314 324 301 290 324 6 226 152 147 135 288 324 180 206 5 307 158 243 195 266 300 262 203 210 192 184 173 156 139 112
17 7 346 352 50 43 97 281 343 309 14 343 121 217 196 319 287 276 258 232 337 162 330 309 159 276 243 268 237 240 228 149 154 284 249 296 266 341 247 170 159 155 149 140 130
60 273 352 0 93 5 319 323 232 326 275 168 298 228 134 232 305 228 287 275 351 333 255 179 294 320 334 5 318 225 208 169 134 4 246 252 261 46 88 134 156 152 151 148 137
47 10 336 44 51 102 30 341 314 259 287 231 253 31 20 287 238 288 297 309 335 240 168 106 205 196 225 236 211 261 238 208 198 207 272 239 262 211 204 191 170 158 149 143 134
29 357 178 329 354 43 8 303 274 302 235 320 316 225 180 276 292 251 250 322 270 246 162 163 237 206 260 274 266 270 268 259 229 246 244 262 258 269 202 200 183 157 148 147 144
129 118 17 304 322 57 249 253 233 289 238 245 204 176 186 224 210 259 319 203 243 11 145 8 274 315 269 255 272 278 274 262 255 257 251 260 264 240 180 135 155 160 161 160 157
167 130 109 233 120 102 239 243 244 199 286 269 241 282 249 242 244 248 226 223 228 204 184 234 224 348 279 344 302 278 267 213 244 224 212 224 260 146 159 165 159 154 157 156 158
Height
845 842 840 836 833 829 826 824 822 819 818 817 816 816 815 815 815 814 814 816 814 811 809 805 802 801 800 804 805 810 836 842 833 831 828 827 826 825 827 826 826 831 830 829 824
846 843 840 836 831 828 826 823 820 818 816 815 815 815 814 814 814 815 817 815 814 812 809 807 807 805 810 810 812 821 839 828 824 824 830 838 833 833 834 832 831 827 820 819 816
847 844 840 835 831 828 825 822 818 815 814 812 812 813 813 813 816 819 818 816 815 813 811 809 809 810 817 817 821 822 833 826 824 822 826 838 841 841 841 844 845 841 830 827 820
847 844 840 835 831 828 824 820 817 814 812 811 811 812 813 814 828 819 818 816 815 814 813 812 813 818 826 826 825 829 825 825 825 825 828 836 841 849 851 856 850 844 837 829 824
847 844 840 836 831 828 824 819 817 814 812 812 812 813 814 818 822 820 819 817 816 815 815 816 818 820 827 827 825 826 827 825 830 832 836 839 847 846 850 851 847 841 836 828 818
847 844 839 835 831 827 823 819 817 816 814 813 814 814 815 826 821 820 819 819 817 816 816 815 818 819 824 825 826 826 829 828 832 833 835 843 851 849 851 847 839 837 833 825 814
848 844 839 835 831 827 823 820 819 817 815 815 816 816 817 824 822 822 821 820 820 819 819 819 818 819 822 825 824 825 830 830 830 831 838 841 850 858 854 849 843 839 833 824 818
850 845 840 835 832 827 822 820 819 818 817 817 817 817 823 822 823 823 822 822 821 821 820 819 818 820 823 825 829 833 838 844 830 829 837 835 848 857 856 850 846 841 833 827 821
850 846 841 836 832 828 823 820 820 819 819 818 818 818 826 823 824 824 823 823 822 821 820 820 821 828 829 838 844 846 847 843 837 838 833 839 855 858 857 852 848 843 838 831 822
851 847 842 837 833 829 823 820 821 820 820 820 820 825 825 829 825 824 823 822 822 822 824 825 833 840 845 848 853 847 846 842 843 841 848 853 860 860 859 856 853 848 841 835 830
852 848 843 838 834 831 824 821 825 826 824 833 834 832 830 828 826 824 823 822 823 825 834 833 844 846 840 840 840 841 844 846 839 838 848 855 858 861 859 857 853 850 848 842 838
852 848 844 839 835 834 828 832 841 842 836 831 831 831 830 830 829 825 824 827 827 835 832 842 843 835 837 838 840 842 843 840 837 839 841 859 855 860 859 858 858 856 852 848 840
852 848 843 839 835 835 835 840 840 840 841 834 830 830 831 830 832 829 827 829 832 835 837 843 836 833 835 839 839 838 839 838 841 839 850 855 850 857 858 860 860 858 857 853 850
853 849 844 840 839 839 840 841 840 841 851 843 835 832 830 829 832 828 829 832 833 837 837 838 835 836 836 838 841 843 837 835 837 840 841 843 847 846 854 858 862 865 860 856 851
853 849 845 841 843 843 846 842 841 842 877 841 837 831 829 833 834 831 830 828 835 837 841 838 837 837 837 836 838 840 835 838 838 843 843 844 853 836 848 852 863 868 866 861 857
853 850 846 844 843 844 841 841 842 854 878 847 838 841 839 835 833 831 832 831 832 836 838 838 836 837 836 836 838 838 837 841 850 852 860 838 844 835 848 851 859 866 868 865 861
852 849 845 844 844 842 840 842 853 867 847 851 850 846 848 843 838 836 840 848 851 855 857 850 840 837 836 838 838 844 849 858 852 852 845 841 844 832 851 855 858 866 869 867 865
850 847 845 844 843 841 840 844 858 852 852 850 849 849 848 848 841 846 844 855 850 852 864 865 857 839 838 840 842 844 849 863 849 848 841 836 834 830 850 857 860 865 867 868 866
848 845 844 844 842 840 843 865 859 855 852 855 851 855 853 848 849 848 850 852 850 849 853 861 853 840 838 836 841 841 850 844 847 847 851 836 837 846 853 858 860 862 865 868 868
849 846 845 844 841 840 851 859 857 854 854 853 855 855 858 857 856 857 852 847 848 848 851 853 862 843 840 839 840 838 843 850 856 845 837 831 835 823 851 851 856 860 864 866 868
849 849 846 843 841 846 860 861 854 853 855 857 856 857 858 859 858 857 852 848 848 849 849 851 860 850 846 842 843 846 846 846 852 851 842 837 819 823 829 837 846 855 860 864 866
850 854 846 842 852 864 859 855 854 853 854 855 856 857 858 857 858 855 853 847 847 847 850 853 867 867 849 840 841 840 838 842 850 844 849 847 836 834 828 832 842 853 859 864 866
856 855 846 844 858 863 858 854 853 854 854 855 856 856 856 857 859 857 852 847 848 848 849 852 864 872 851 846 841 840 838 835 845 858 842 844 826 838 840 841 844 851 859 862 865
859 859 854 854 862 859 859 857 856 853 854 854 854 855 856 858 857 855 853 848 848 849 849 853 864 858 860 845 844 847 842 836 837 856 835 823 812 839 840 842 847 851 857 861 863
863 865 866 865 864 863 861 861 858 857 856 854 855 856 857 861 859 857 855 855 849 847 851 856 862 866 854 852 850 844 837 837 844 830 832 811 815 808 826 831 839 848 856 860 862
864 865 870 871 869 865 864 863 861 859 857 855 856 854 858 860 855 856 856 857 857 852 854 861 859 857 860 848 847 844 828 829 826 821 818 812 809 811 813 827 840 845 851 856 861
862 862 862 866 869 870 869 863 861 859 856 854 855 855 858 855 852 850 850 852 851 851 856 857 860 857 851 855 851 832 814 817 815 815 813 821 811 827 829 827 835 844 850 855 860